{"data":{"norad_id":69045,"epoch":"2026-09-20T01:28:16.481568Z","epoch_age_seconds":61165,"freshness":"FRESH","line1":"1 69045U 26101W   26263.06130187  .00028644  00000+0  88474-3 0  9996","line2":"2 69045  97.2874 116.5846 0001717 116.9320 243.2099 15.33497140 21113","mean_motion":15.3349714,"eccentricity":0.0001717,"inclination_deg":97.2874,"raan_deg":116.5846,"arg_perigee_deg":116.932,"mean_anomaly_deg":243.2099,"bstar":0.00088474,"rev_number":2111,"period_min":93.903011778685,"perigee_km":464.2130136667,"apogee_km":466.56308016781,"semimajor_km":6843.5250469173,"source":"CELESTRAK","updated_at":"2026-09-20T09:00:44.062157Z"}}